Aspen, CO

7:26 AM MST on December 17, 2017 (GMT -0700)
Aspen-Pitkin County / Sardy Field

Weather History for KASE - July, 2013

Change the Weather History Date:

Thursday, July 25, 2013

  Actual Average Record
Temperature  
Mean Temperature 64 °F 64 °F  
Max Temperature 78 °F 80 °F 86 °F (1987)
Min Temperature 49 °F 48 °F 39 °F (1993)
Degree Days  
Heating Degree Days 1 2  
Month to date heating degree days 11 59  
Since 1 June heating degree days 157 288  
Since 1 July heating degree days 11 59  
Cooling Degree Days 0 1  
Month to date cooling degree days 39 23  
Year to date cooling degree days 55 27  
Since 1 June cooling degree days 55 27  
Growing Degree Days 15 (Base 50)    
Moisture  
Dew Point 46 °F    
Average Humidity 58    
Maximum Humidity 89    
Minimum Humidity 26    
Precipitation  
Precipitation 0.11 in 0.07 in 0.38 in (1987)
Month to date precipitation 0.52 1.32  
Year to date precipitation 7.29 9.39  
Sea Level Pressure  
Sea Level Pressure 29.99 in    
Wind  
Wind Speed 4 mph (SSW)    
Max Wind Speed 16 mph    
Max Gust Speed 22 mph    
Visibility 10 miles    
Events Rain    
T = Trace of Precipitation, MM = Missing Value Source: NWS Daily Summary

Daily Weather History Graph

Daily Weather History Graph

Search for Another Location

Airport or City:

Trip Planner

Search our weather history database for the weather conditions in past years. The results will help you decide how hot, cold, wet, or windy it might be!

Date:

Astronomy

Jul. 25, 2013 Rise Set
Actual Time 6:01 AM MDT 8:25 PM MDT
Civil Twilight 5:31 AM MDT 8:56 PM MDT
Nautical Twilight 4:53 AM MDT 9:33 PM MDT
Astronomical Twilight 4:11 AM MDT 10:15 PM MDT
Moon 10:10 PM MDT (7/25) 9:32 AM MDT (7/25)
Length of Visible Light 15h 24m
Length of Day
14h 23m
Waning Gibbous, 88% of the Moon is Illuminated
Jul 25
Waning Gibbous
Jul 29
Last Quarter
Aug 6
New
Aug 14
First Quarter
Aug 20
Full

Hourly Weather History & Observations

Time (MDT) Temp. Dew Point Humidity Pressure Visibility Wind Dir Wind Speed Gust Speed Precip Events Conditions
12:53 AM 57.0 °F 39.9 °F 53% 29.94 in 10.0 mi South 5.8 mph - N/A   Mostly Cloudy
1:53 AM 57.0 °F 41.0 °F 55% 29.93 in 10.0 mi Calm Calm - N/A   Overcast
2:53 AM 54.0 °F 46.9 °F 77% 29.92 in 10.0 mi Calm Calm - 0.01 in Rain Light Rain
3:53 AM 54.0 °F 50.0 °F 86% 29.94 in 10.0 mi NNE 5.8 mph - 0.01 in   Overcast
4:53 AM 53.1 °F 48.9 °F 86% 29.96 in 10.0 mi SE 3.5 mph - 0.01 in   Overcast
5:53 AM 54.0 °F 50.0 °F 86% 29.96 in 10.0 mi Calm Calm - N/A   Overcast
6:53 AM 53.1 °F 50.0 °F 89% 29.99 in 10.0 mi Calm Calm - N/A   Mostly Cloudy
7:53 AM 57.9 °F 50.0 °F 75% 30.01 in 10.0 mi Calm Calm - N/A   Scattered Clouds
8:53 AM 63.0 °F 48.0 °F 58% 30.01 in 10.0 mi Calm Calm - N/A   Clear
9:53 AM 69.1 °F 46.9 °F 45% 29.99 in 10.0 mi North 6.9 mph - N/A   Clear
10:53 AM 72.0 °F 46.0 °F 40% 29.99 in 10.0 mi North 9.2 mph - N/A   Scattered Clouds
11:53 AM 73.0 °F 43.0 °F 34% 29.98 in 9.0 mi North - - N/A   Partly Cloudy
12:53 PM 77.0 °F 39.9 °F 26% 29.95 in 10.0 mi North 9.2 mph 19.6 mph N/A   Mostly Cloudy
1:53 PM 75.0 °F 39.9 °F 28% 29.95 in 10.0 mi East 9.2 mph - N/A   Mostly Cloudy
2:53 PM 66.9 °F 46.0 °F 47% 30.03 in 10.0 mi Variable 4.6 mph - 0.02 in Rain Light Rain
3:53 PM 69.1 °F 48.9 °F 49% 30.02 in 10.0 mi South 8.1 mph - 0.03 in   Mostly Cloudy
4:53 PM 72.0 °F 45.0 °F 38% 29.98 in 10.0 mi SE 8.1 mph - N/A   Partly Cloudy
5:53 PM 72.0 °F 43.0 °F 35% 29.97 in 10.0 mi Calm Calm - N/A   Mostly Cloudy
6:53 PM 71.1 °F 46.9 °F 42% 29.99 in 10.0 mi North 4.6 mph - N/A   Mostly Cloudy
7:53 PM 60.1 °F 51.1 °F 72% 30.05 in 10.0 mi WSW 6.9 mph - 0.03 in   Scattered Clouds
8:53 PM 57.0 °F 50.0 °F 77% 30.06 in 10.0 mi Calm Calm - N/A   Clear
9:53 PM 53.1 °F 48.0 °F 83% 30.07 in 10.0 mi SW 4.6 mph - N/A   Clear
10:53 PM 54.0 °F 46.0 °F 75% 30.08 in 10.0 mi SW 3.5 mph - N/A   Clear
11:53 PM 52.0 °F 46.0 °F 80% 30.09 in 10.0 mi SW 5.8 mph - N/A   Clear